Warning: Javascript must be enabled to use all the features on this page!


Page Loading - Please Wait...

Click to hideNews Bulletins

USGS 04189260 Blanchard River at Ottawa OH

PROVISIONAL DATA SUBJECT TO REVISION

Click to hidestation-specific text
Station operated in cooperation with the Village of Ottawa and the National Streamflow Information Program.
 04189260 Blanchard River at Ottawa, OH
 LOCATION.--Lat 41°01'01", long 84°02'49", Putnam County, OH, Hydrologic 
     Unit 04100008, on right bank at downstream side of Oak Street, 200 ft. upstream 
     of B&O railroad bridge, 800 ft. upstream of SR65 bridge, 1,200 ft. southeast of 
     intersection of SR65 and US RT224 in the village of Ottawa, OH.
 DRAINAGE AREA.--628 mi2.
 PERIOD OF RECORD.--October 2009 to current water year.
Want to learn more about areas near this gage that are inundated during flooding? See the USGS flood-inundation mapper.

Boating safety tips
Available Parameters Available Period
All 2 Available Parameters for this site
  
00060 Discharge 2009-10-01  2016-12-09
00065 Gage height 2016-08-11  2016-12-09

Graph
Graph w/ stats
Graph w/o stats
Graph w/ (up to 3) parms
Table
Tab-separated
Days  (7)
 

  -- or --
Begin date
 

End date
 

Summary of all available data for this site
Instantaneous-data availability statement
Gage height, feet
TIMEDec 2Dec 3Dec 4Dec 5Dec 6Dec 7Dec 8Dec 9
00:00 EST5.22P  5.10P  5.05P  5.04P  5.01P  5.22P  5.64P  5.75P  
00:30 EST5.22P  5.10P  5.05P  5.04P  5.01P  5.23P  5.66P  5.75P  
01:00 EST5.21P  5.09P  5.05P  5.04P  5.01P  5.23P  5.69P  5.74P  
01:30 EST5.21P  5.09P  5.05P  5.04P  5.01P  5.23P  5.71P  5.74P  
02:00 EST5.20P  5.09P  5.05P  5.04P  5.01P  5.24P  5.74P  5.73P  
02:30 EST5.20P  5.09P  5.05P  5.04P  5.01P  5.24P  5.76P  5.72P  
03:00 EST5.20P  5.08P  5.05P  5.04P  5.01P  5.24P  5.77P  5.71P  
03:30 EST5.19P  5.08P  5.04P  5.04P  5.01P  5.24P  5.80P  5.69P  
04:00 EST5.19P  5.08P  5.04P  5.04P  5.01P  5.25P  5.81P  5.67P  
04:30 EST5.19P  5.08P  5.04P  5.04P  5.02P  5.25P  5.83P  5.65P  
05:00 EST5.18P  5.08P  5.04P  5.04P  5.02P  5.25P  5.84P  5.62P  
05:30 EST5.18P  5.08P  5.04P  5.04P  5.02P  5.25P  5.84P  5.57P  
06:00 EST5.18P  5.07P  5.04P  5.04P  5.02P  5.25P  5.85P  5.52P  
06:30 EST5.18P  5.07P  5.04P  5.04P  5.02P  5.26P  5.86P  5.46P  
07:00 EST5.18P  5.07P  5.04P  5.04P  5.02P  5.26P  5.86P  5.42P  
07:30 EST5.17P  5.07P  5.04P  5.04P  5.02P  5.26P  5.86P  5.38P  
08:00 EST5.17P  5.07P  5.04P  5.04P  5.02P  5.26P  5.86P  5.36P  
08:30 EST5.17P  5.07P  5.04P  5.04P  5.02P  5.27P  5.87P  5.35P  
09:00 EST5.17P  5.07P  5.04P  5.04P  5.02P  5.27P  5.86P  5.35P  
09:30 EST5.16P  5.07P  5.04P  5.03P  5.02P  5.27P  5.86P  5.37P  
10:00 EST5.16P  5.07P  5.03P  5.04P  5.03P  5.28P  5.86P  5.41P  
10:30 EST5.16P  5.07P  5.03P  5.04P  5.03P  5.28P  5.86P  5.48P  
11:00 EST5.16P  5.07P  5.03P  5.03P  5.04P  5.28P  5.86P  5.54P  
11:30 EST5.16P  5.07P  5.03P  5.04P  5.05P  5.28P  5.86P  5.60P  
12:00 EST5.15P  5.07P  5.03P  5.03P  5.06P  5.29P  5.86P  5.66P  
12:30 EST5.15P  5.07P  5.03P  5.03P  5.08P  5.30P  5.86P  5.70P  
13:00 EST5.15P  5.07P  5.03P  5.03P  5.10P  5.30P  5.86P  5.74P  
13:30 EST5.15P  5.07P  5.03P  5.03P  5.11P  5.30P  5.85P  5.78P  
14:00 EST5.15P  5.07P  5.03P  5.03P  5.12P  5.30P  5.85P  5.82P  
14:30 EST5.14P  5.07P  5.03P  5.03P  5.12P  5.30P  5.85P  5.86P  
15:00 EST5.14P  5.07P  5.03P  5.03P  5.13P  5.31P  5.85P  5.90P  
15:30 EST5.14P  5.06P  5.03P  5.02P  5.13P  5.31P  5.85P  5.92P  
16:00 EST5.14P  5.06P  5.02P  5.02P  5.14P  5.31P  5.84P   
16:30 EST5.13P  5.06P  5.03P  5.02P  5.14P  5.32P  5.84P   
17:00 EST5.13P  5.06P  5.03P  5.02P  5.15P  5.32P  5.84P   
17:30 EST5.13P  5.06P  5.03P  5.02P  5.15P  5.33P  5.83P   
18:00 EST5.13P  5.06P  5.03P  5.02P  5.16P  5.34P  5.82P   
18:30 EST5.13P  5.06P  5.03P  5.02P  5.16P  5.35P  5.82P   
19:00 EST5.12P  5.06P  5.04P  5.02P  5.17P  5.36P  5.82P   
19:30 EST5.12P  5.06P  5.04P  5.01P  5.17P  5.38P  5.81P   
20:00 EST5.12P  5.06P  5.04P  5.01P  5.18P  5.40P  5.80P   
20:30 EST5.12P  5.06P  5.04P  5.01P  5.19P  5.42P  5.79P   
21:00 EST5.11P  5.06P  5.04P  5.01P  5.19P  5.44P  5.79P   
21:30 EST5.11P  5.05P  5.04P  5.01P  5.20P  5.47P  5.79P   
22:00 EST5.11P  5.05P  5.04P  5.01P  5.20P  5.51P  5.78P   
22:30 EST5.11P  5.05P  5.04P  5.01P  5.21P  5.55P  5.77P   
23:00 EST5.10P  5.05P  5.04P  5.01P  5.21P  5.58P  5.77P   
23:30 EST5.10P  5.05P  5.04P  5.01P  5.22P  5.61P  5.76P   
COUNT4848484848484832
MAX5.225.105.055.045.225.615.875.92
MIN5.105.055.025.015.015.225.645.35

Explanation
  P  Provisional data subject to revision.